Change the Weather History Date:

Tuesday, March 26, 2013

  Actual Average Record
Temperature  
Mean Temperature 32 °F -  
Max Temperature 44 °F 37 °F 55 °F (2004)
Min Temperature 21 °F 18 °F -4 °F (2001)
Degree Days  
Heating Degree Days 33    
Moisture  
Dew Point 21 °F    
Average Humidity 61    
Maximum Humidity 84    
Minimum Humidity 41    
Precipitation  
Precipitation 0.00 in - - ()
Sea Level Pressure  
Sea Level Pressure 29.68 in    
Wind  
Wind Speed 5 mph (NNW)    
Max Wind Speed 10 mph    
Max Gust Speed -    
Visibility 10 miles    
Events      
Averages and records for this station are not official NWS values.
T = Trace of Precipitation, MM = Missing Value Source: NWS Daily Summary

Daily Weather History Graph

Daily Weather History Graph

Search for Another Location

Airport or City:

Trip Planner

Search our weather history database for the weather conditions in past years. The results will help you decide how hot, cold, wet, or windy it might be!

Date:

Astronomy

Mar. 26, 2013 Rise Set
Actual Time 6:36 AM EDT 7:04 PM EDT
Civil Twilight 6:07 AM EDT 7:34 PM EDT
Nautical Twilight 5:32 AM EDT 8:08 PM EDT
Astronomical Twilight 4:57 AM EDT 8:44 PM EDT
Moon 6:39 PM EDT (3/26) 5:52 AM EDT (3/26)
Length of Visible Light 13h 27m
Length of Day
12h 28m
Waxing Gibbous, 99% of the Moon is Illuminated
Mar 26
Waxing Gibbous
Mar 27
Full
Apr 3
Last Quarter
Apr 10
New
Apr 18
First Quarter

Hourly Weather History & Observations

Time (EDT) Temp. Windchill Dew Point Humidity Pressure Visibility Wind Dir Wind Speed Gust Speed Precip Events Conditions
12:52 AM 34.0 °F 31.0 °F 21.9 °F 61% 29.61 in 10.0 mi Variable 3.5 mph - N/A   Overcast
1:52 AM 33.1 °F 27.7 °F 21.9 °F 64% 29.61 in 10.0 mi North 5.8 mph - N/A   Overcast
2:52 AM 33.1 °F 30.0 °F 21.9 °F 64% 29.61 in 10.0 mi North 3.5 mph - N/A   Overcast
3:52 AM 32.0 °F 27.5 °F 21.9 °F 66% 29.62 in 10.0 mi NNE 4.6 mph - N/A   Overcast
4:52 AM 30.9 °F 24.3 °F 21.0 °F 67% 29.62 in 10.0 mi North 6.9 mph - N/A   Overcast
5:52 AM 28.9 °F - 19.9 °F 69% 29.63 in 10.0 mi Calm Calm - N/A   Clear
6:52 AM 21.9 °F - 17.1 °F 82% 29.65 in 10.0 mi Calm Calm - N/A   Clear
7:52 AM 28.9 °F 22.8 °F 18.0 °F 64% 29.66 in 10.0 mi NNW 5.8 mph - N/A   Clear
8:52 AM 33.1 °F - 19.0 °F 56% 29.67 in 10.0 mi Calm Calm - N/A   Clear
9:52 AM 37.0 °F 29.8 °F 19.0 °F 48% 29.68 in 10.0 mi NNW 10.4 mph - N/A   Mostly Cloudy
10:52 AM 39.0 °F 32.3 °F 19.9 °F 46% 29.68 in 10.0 mi NNW 10.4 mph - N/A   Mostly Cloudy
12:52 PM 41.0 °F 35.8 °F 19.0 °F 41% 29.67 in 10.0 mi NW 8.1 mph - N/A   Overcast
1:52 PM 41.0 °F 35.2 °F 19.9 °F 43% 29.68 in 10.0 mi NW 9.2 mph - N/A   Overcast
2:52 PM 43.0 °F 38.2 °F 21.0 °F 42% 29.67 in 10.0 mi NNW 8.1 mph - N/A   Overcast
3:52 PM 42.1 °F 37.7 °F 19.9 °F 41% 29.69 in 10.0 mi NNW 6.9 mph - N/A   Mostly Cloudy
4:52 PM 39.9 °F 33.4 °F 21.9 °F 49% 29.70 in 10.0 mi NNW 10.4 mph - N/A   Overcast
5:52 PM 39.0 °F 32.8 °F 21.9 °F 50% 29.72 in 10.0 mi NW 9.2 mph - N/A   Clear
6:52 PM 37.9 °F 34.4 °F 21.0 °F 51% 29.74 in 10.0 mi Variable 4.6 mph - N/A   Clear
7:52 PM 28.9 °F - 21.9 °F 75% 29.75 in 10.0 mi Calm Calm - N/A   Clear
8:52 PM 30.0 °F - 23.0 °F 75% 29.76 in 10.0 mi Calm Calm - N/A   Scattered Clouds
9:52 PM 28.0 °F - 21.9 °F 78% 29.77 in 10.0 mi Calm Calm - N/A   Partly Cloudy
10:52 PM 26.1 °F 21.9 °F 21.0 °F 81% 29.76 in 10.0 mi SSE 3.5 mph - N/A   Clear
11:52 PM 26.1 °F - 21.9 °F 84% 29.75 in 10.0 mi Calm Calm - N/A   Overcast